sat.trackr.live / text

‹ back to catalog

PELICAN-2

NORAD 62631 · 2025-009Y

PAYLOAD ACTIVE UNKNOWN

§ Identity

Operator
Country
US
Launch date
2025-01-14
Launch site
AFWTR
Launch vehicle
Mass (kg)
RCS (m²)

Purposes: earth_obs

External: N2YO · Heavens-Above · Gunter

§ Orbital elements

Epoch: 2026-05-24T23:44:04.415136Z

Period
93.47 min
Inclination
97.3098°
Eccentricity
0.0001466
Mean motion
15.40600230 rev/d
Perigee alt
443.3 km
Apogee alt
445.3 km
Semi-major
6,822.5 km
B*
9.5150e-6
RAAN
235.8859°
Arg perigee
52.6464°
Mean anomaly
307.4915°
Rev number
7,598

§ Raw data

PELICAN-21 62631U 25009Y   26144.98893999  .00000305  00000+0  95150-5 0  99972 62631  97.3098 235.8859 0001466  52.6464 307.4915 15.40600230 75989

JSON: /api/v1/satellites/62631 · /tle

For live sub-satellite position, see the globe view (requires WebGL).

§ Visibility from observer

Set your observer location to see the next 7 days of passes ≥ 10°. The values pass through the URL so the page stays shareable.

No JS? Fill the form by hand. The geolocation button needs JavaScript.